Theta_e
326 327 328 329 330 330 330 331 331 331 332 333 333 332 333 333 332 332 331 331 331 331 330 329 329 330 331 328 328 330 332 332 333 331 331 331 330 330 329 330 330 331 331 331 331 330 329 328 328 329 331 331 331 332 331 332 333 331 329 328 326 329 323 320 318 320 323 327 324 321 322 319 317 319 318 319 323 324 320 320 319 320 320 317 314
324 325 327 327 327 328 329 330 330 331 331 331 331 331 332 332 332 332 331 331 331 330 330 329 329 329 329 330 330 331 331 331 330 330 330 330 330 330 330 331 328 330 331 330 330 330 330 329 329 330 331 331 332 331 330 331 331 329 329 329 328 329 327 324 321 319 319 322 323 326 321 321 317 319 315 316 318 318 319 319 319 319 320 320 316
323 324 325 326 326 327 328 328 328 328 329 330 331 330 330 331 331 330 329 329 331 329 330 329 328 329 331 330 329 330 331 328 332 333 331 330 329 329 329 329 327 329 329 330 330 330 330 329 328 329 331 330 331 330 331 330 329 328 328 328 328 327 328 326 322 320 319 319 322 319 317 318 318 313 313 315 316 317 320 317 314 315 319 318 318
323 323 324 324 325 325 325 326 326 327 327 328 329 330 330 331 331 331 330 331 330 331 332 330 328 330 330 329 329 330 330 331 331 332 330 330 330 328 330 329 331 330 330 330 330 330 328 327 328 328 329 327 329 331 330 329 329 327 328 325 326 329 329 327 326 322 320 318 319 317 318 316 315 312 312 311 311 311 315 313 311 311 316 316 316
322 322 323 323 323 323 324 324 325 326 326 327 328 330 330 331 331 329 330 330 329 329 331 331 330 331 330 330 329 330 329 329 328 330 329 328 329 329 329 329 330 330 330 330 331 330 327 327 329 328 327 327 327 328 328 329 328 327 326 326 326 326 327 327 326 326 321 319 318 319 317 317 317 313 311 308 307 308 311 306 306 309 315 314 315
321 322 322 322 321 322 323 324 324 326 327 327 329 330 330 329 329 329 329 328 330 331 330 330 331 331 329 330 330 330 329 329 331 330 330 329 329 329 329 329 329 330 330 330 330 331 329 329 329 329 329 327 327 325 326 325 326 325 327 328 326 323 324 325 325 322 322 319 317 314 315 315 316 313 312 309 307 305 306 307 307 309 311 311 313
320 321 321 321 321 321 322 323 325 326 327 328 329 329 329 330 329 328 329 329 329 328 329 329 330 329 330 331 330 330 328 328 328 328 329 330 329 328 327 327 330 329 330 332 332 331 330 328 325 326 327 327 327 327 327 329 325 324 326 325 325 326 322 322 322 320 319 317 316 315 315 317 318 312 313 312 310 308 306 305 306 309 312 310 309
319 319 320 320 320 321 322 324 325 325 327 327 328 328 328 328 330 330 330 329 328 328 329 329 329 329 329 330 330 330 330 330 329 328 330 330 329 329 328 328 329 331 331 330 330 330 329 328 326 326 327 327 327 326 329 326 326 326 326 326 325 322 324 324 322 319 318 317 315 313 314 313 313 316 314 312 308 306 308 308 306 307 309 311 308
318 318 319 318 319 320 321 323 324 324 325 325 325 325 325 326 327 327 328 328 328 328 328 330 331 331 331 330 329 329 330 331 330 330 331 330 329 328 329 329 328 329 330 330 330 329 329 330 328 329 328 329 320 321 324 324 326 325 325 326 325 323 324 323 323 317 316 317 314 315 312 311 311 312 311 309 307 306 310 309 309 310 310 311 310
318 317 317 318 318 319 321 322 322 322 322 322 322 323 323 323 324 324 326 327 327 327 326 328 328 329 329 329 330 330 329 330 324 319 320 329 328 328 328 327 327 328 329 329 327 326 327 330 328 326 319 317 315 311 310 314 321 326 326 326 325 325 324 324 321 320 317 316 314 313 311 310 310 312 311 312 315 314 310 310 307 308 309 309 311
318 317 316 317 318 318 319 320 320 320 320 321 321 320 319 319 319 320 321 323 325 324 326 327 326 327 326 326 326 327 320 307 297 298 305 313 328 328 328 327 328 328 328 328 326 326 327 324 318 317 315 313 311 303 300 301 302 300 301 309 318 328 323 319 323 321 322 320 318 314 311 311 314 315 313 312 316 316 314 313 314 314 309 306 306
317 316 316 316 317 317 318 318 318 318 319 319 319 318 318 317 317 317 318 319 322 323 323 323 324 324 323 319 316 314 311 300 295 296 296 297 304 324 328 326 327 326 327 327 326 325 325 323 322 323 322 317 312 307 303 299 298 299 300 300 299 298 304 320 322 320 321 318 319 319 317 318 316 317 317 318 318 317 315 314 314 312 311 310 311
316 315 315 315 315 316 316 317 317 317 317 318 318 317 316 315 315 315 315 317 318 319 319 319 318 319 318 316 312 311 307 297 295 296 295 295 294 307 329 328 328 326 324 325 326 326 325 325 325 326 323 320 319 314 310 306 302 302 304 305 304 301 298 298 306 323 325 323 320 318 320 319 316 317 322 321 318 317 317 316 319 317 316 314 312
315 314 314 314 315 315 315 316 316 316 316 316 315 315 314 314 315 314 314 315 315 315 317 316 316 316 315 313 311 308 303 296 294 296 296 296 294 303 324 329 328 327 326 326 326 326 326 325 325 323 322 323 320 317 315 314 316 321 318 315 312 308 303 302 306 309 316 322 321 319 321 322 319 320 322 321 319 319 319 317 317 316 316 315 317
313 312 312 313 314 314 314 314 315 315 315 315 314 314 314 314 314 313 312 312 312 312 313 314 313 313 313 312 310 307 301 294 295 295 295 296 298 309 324 325 325 324 324 324 324 326 326 326 326 324 324 324 322 319 319 321 321 317 313 310 307 305 303 304 311 318 320 320 314 312 311 312 312 312 314 320 323 322 322 320 318 318 317 316 316
312 311 311 312 312 312 312 313 313 313 313 313 313 313 313 313 312 312 311 310 311 310 308 307 307 307 309 310 309 307 303 294 295 296 296 296 307 323 323 323 323 323 317 314 311 311 320 322 321 322 319 313 303 307 316 322 317 314 311 310 308 305 302 299 298 303 309 311 309 307 304 303 301 303 305 310 315 318 321 322 319 318 316 312 311
310 310 310 310 311 311 311 311 311 311 311 312 311 311 312 312 312 312 310 310 309 309 307 305 305 304 303 304 305 304 302 296 294 296 297 299 311 320 321 322 321 316 313 311 309 305 304 313 321 317 312 309 299 302 306 312 318 316 313 311 310 308 306 305 298 297 297 297 296 296 296 297 298 298 298 299 304 312 317 316 313 316 314 310 309
309 309 309 309 310 310 310 310 310 310 310 309 310 310 311 312 311 312 310 309 308 308 308 306 306 304 301 301 302 302 301 297 295 296 298 302 311 320 319 320 318 312 310 309 307 305 303 301 304 305 306 306 297 298 304 316 319 316 314 312 310 309 309 309 307 302 296 296 297 297 298 299 300 300 299 299 301 306 311 308 309 311 313 311 310
308 308 308 309 309 310 310 309 309 309 309 308 309 308 309 309 311 311 311 310 309 308 307 306 305 304 302 301 300 300 300 298 294 295 297 300 312 318 318 315 313 311 308 305 304 303 302 300 298 297 299 297 294 296 300 314 321 318 316 314 312 311 311 312 312 311 311 312 312 312 309 307 310 309 306 300 301 306 308 307 308 307 305 307 308
308 308 308 308 308 308 308 307 307 307 308 307 308 308 308 308 308 309 310 310 309 308 307 306 304 303 302 300 299 298 299 298 295 294 296 298 302 310 309 307 304 303 304 303 301 301 300 299 297 292 292 293 293 295 295 299 310 312 316 315 313 312 315 315 316 315 312 312 311 310 309 309 308 307 307 307 307 306 305 305 305 305 304 304 305
308 307 307 305 305 305 306 306 305 305 306 306 307 307 307 307 307 306 306 307 307 307 306 306 305 304 303 302 300 298 298 297 296 293 294 295 298 303 306 305 303 302 301 300 299 298 297 297 297 294 292 293 293 293 294 295 298 303 303 303 305 309 309 312 310 307 311 310 309 308 307 307 306 305 305 305 305 305 304 303 303 303 304 303 301
308 307 306 304 303 303 302 303 304 304 304 305 305 305 306 306 305 305 304 304 304 303 304 304 304 304 304 303 302 300 298 296 296 293 293 294 294 297 302 302 301 300 299 298 298 297 297 296 295 294 293 293 293 293 293 294 295 301 296 294 296 299 308 308 309 308 307 306 305 304 304 303 304 304 303 304 304 304 304 303 302 303 303 304 302
307 307 305 304 303 302 301 300 300 301 301 302 302 302 303 304 304 303 302 302 301 301 301 302 302 301 302 303 303 303 301 299 295 295 292 292 293 293 294 296 295 300 297 296 297 296 297 297 297 295 293 293 293 293 293 294 296 296 294 295 295 297 301 306 306 306 304 304 303 303 303 303 302 302 302 303 304 305 304 304 304 304 303 303 303
306 305 305 303 302 302 302 301 300 299 299 299 299 298 299 302 302 301 301 300 299 299 299 300 300 300 299 300 301 302 303 303 298 295 294 292 292 292 292 293 294 298 298 296 296 296 296 296 295 293 293 293 293 294 293 293 294 293 294 295 297 298 304 304 303 305 303 302 302 303 302 302 302 301 301 303 303 304 305 305 304 304 303 302 301
305 303 302 302 301 301 301 301 301 300 299 298 297 297 296 297 298 300 300 299 298 298 298 298 298 298 298 298 299 299 301 303 303 298 295 294 293 293 292 292 293 294 297 297 296 296 293 293 293 293 294 294 294 295 295 294 293 294 294 296 301 303 303 303 303 303 301 299 300 302 301 301 301 301 303 303 304 304 302 302 302 302 303 303 302
303 302 301 301 300 300 299 299 299 300 300 299 298 297 296 296 296 297 298 297 298 297 297 297 297 296 296 296 297 297 297 298 300 302 300 299 297 295 294 294 295 295 296 295 293 293 293 293 294 294 295 296 298 298 297 297 295 295 295 298 301 301 301 302 301 300 300 301 301 300 301 302 302 305 304 303 301 302 301 301 301 301 301 300 299
304 303 302 300 300 299 298 298 298 299 299 299 299 298 297 296 295 295 297 298 296 296 296 296 296 296 295 296 296 296 296 295 294 296 299 301 300 300 300 300 297 297 300 300 298 298 296 296 295 294 294 294 294 295 295 295 297 299 300 300 300 300 299 300 301 300 299 300 299 300 300 301 301 302 302 301 300 300 301 301 301 300 301 299 298
303 303 303 302 301 300 299 293 296 298 297 296 296 298 298 297 294 293 294 296 297 296 295 294 293 293 295 296 296 295 294 293 291 292 294 298 300 300 300 299 299 298 299 299 299 299 298 295 296 297 297 297 298 298 298 298 297 296 299 300 300 300 299 298 298 300 300 301 300 301 300 301 301 301 301 300 299 299 301 301 300 299 298 299 296
303 303 303 303 302 301 300 299 298 298 297 296 294 293 294 297 296 293 292 292 294 297 297 295 294 293 292 292 294 294 293 291 290 289 290 290 293 296 296 296 297 297 294 293 298 297 296 296 294 295 295 292 292 295 296 296 294 297 298 298 299 299 300 300 299 299 298 300 300 300 299 301 301 300 300 298 299 298 297 298 300 301 300 299 295
302 302 302 302 302 302 301 300 299 298 298 296 295 293 289 290 293 295 292 290 289 289 291 294 295 295 292 291 291 292 291 291 289 289 290 291 290 290 290 290 291 294 292 292 295 294 293 292 292 292 293 292 292 291 292 292 292 292 294 292 295 296 296 297 297 297 294 294 296 293 293 294 295 298 297 296 296 297 297 295 298 298 297 295 294
301 301 301 301 300 303 302 301 300 300 298 297 296 294 293 292 289 289 290 290 290 289 289 289 289 290 295 293 290 289 289 289 289 290 290 290 290 290 290 291 292 292 292 292 292 291 291 291 291 291 291 292 291 291 291 291 290 290 292 292 293 292 292 294 295 292 291 290 290 291 291 293 293 293 294 293 294 295 295 295 296 296 296 295 294
300 300 300 301 301 301 301 301 301 301 299 299 298 296 295 294 293 290 289 290 290 290 290 289 289 289 289 292 295 294 290 290 290 290 290 290 290 290 291 291 291 291 292 293 292 292 292 291 291 291 291 290 290 289 291 291 291 291 290 289 290 291 292 292 293 294 290 290 289 290 290 290 291 290 291 290 289 293 294 291 291 290 291 293 294
301 302 301 301 300 300 299 300 300 300 300 300 299 298 296 294 292 292 292 290 290 290 289 290 289 289 289 289 289 289 289 289 290 290 291 291 291 291 291 292 292 292 293 292 291 291 292 293 294 294 293 291 293 292 293 294 292 292 292 291 291 292 294 294 291 293 290 291 290 290 290 290 289 289 289 290 289 290 291 290 293 293 293 290 289
300 299 301 301 300 300 300 300 300 300 300 299 299 299 299 297 295 293 292 293 294 291 291 290 289 289 289 290 290 289 289 289 289 290 290 290 291 291 292 292 292 293 293 293 292 291 293 293 293 293 293 293 293 292 291 293 292 292 291 293 293 294 294 295 295 293 290 290 290 290 291 291 291 290 290 290 291 291 290 290 290 289 289 290 289
301 295 291 295 300 300 300 299 299 299 298 299 299 298 299 299 298 298 297 296 295 294 294 295 292 291 292 291 289 290 290 290 290 290 290 291 291 290 290 296 291 295 295 296 295 294 293 293 292 293 293 292 292 290 292 294 293 292 291 290 292 291 291 290 290 291 290 290 290 290 289 289 290 289 289 289 289 289 289 288 289 290 289 288 288
301 300 300 299 299 299 299 299 299 299 299 298 299 298 297 297 297 297 296 296 297 296 295 296 295 291 290 290 289 290 290 290 291 291 291 292 291 290 292 291 291 293 293 295 295 294 294 294 294 295 295 294 294 292 293 292 293 292 292 292 289 290 289 289 289 289 289 290 290 290 289 289 289 289 290 290 290 289 289 288 288 287 288 287 287
300 300 300 299 299 298 298 298 299 298 295 296 297 298 297 297 296 297 296 296 296 296 297 297 296 295 294 294 293 290 290 291 292 292 292 292 292 295 295 294 293 294 292 294 294 294 294 294 294 295 295 294 294 295 293 293 294 293 292 292 292 290 289 289 289 289 290 290 289 289 289 289 289 289 290 289 289 289 287 287 287 287 287 287 287
299 298 298 301 301 301 300 299 298 293 296 297 298 298 297 298 297 296 295 295 294 293 293 293 293 294 294 296 296 297 296 291 291 293 293 292 292 291 293 293 293 293 293 293 294 294 293 294 294 294 294 294 294 294 293 293 293 291 290 292 289 289 290 289 290 290 289 289 289 289 289 289 289 289 289 288 288 288 287 287 287 287 287 286 286
298 292 290 291 293 299 298 297 297 297 298 297 297 296 294 295 295 295 295 295 294 293 292 293 294 294 294 296 297 298 296 294 291 290 291 292 292 292 293 294 293 293 293 294 294 293 294 293 293 293 293 294 293 293 292 291 292 290 290 289 289 289 289 289 289 288 288 289 288 289 288 288 289 289 288 288 288 287 287 287 287 286 286 285 285
298 298 296 293 295 297 297 298 298 299 295 296 296 296 295 295 296 295 296 295 294 293 294 293 293 294 295 295 294 294 295 291 292 291 290 290 291 293 294 291 293 293 293 293 293 293 293 293 293 292 292 292 292 292 292 292 289 290 290 289 289 289 289 289 289 289 289 289 289 289 289 289 289 288 289 288 287 287 287 286 286 285 286 285 285
298 299 295 295 294 297 296 296 297 297 298 297 297 296 295 295 295 294 295 294 294 293 294 293 294 295 295 291 289 290 296 294 294 294 292 291 291 292 292 293 292 293 293 292 292 293 293 292 292 291 290 290 291 291 292 291 290 290 289 290 289 289 289 289 289 288 289 289 289 289 288 288 288 288 287 287 288 288 287 287 287 286 285 286 286
300 299 299 297 297 298 297 296 297 299 298 297 297 296 295 294 295 295 293 296 292 293 294 294 294 296 293 289 291 289 295 295 294 293 294 294 293 293 292 293 294 294 293 293 293 290 289 291 290 289 288 288 288 288 289 289 289 289 289 290 290 289 288 289 289 289 288 289 288 288 288 288 288 288 288 289 288 287 287 286 286 286 286 285 285
300 298 298 297 297 297 296 296 296 296 295 296 296 294 294 295 296 295 295 293 294 293 293 294 295 295 295 290 291 289 295 295 292 294 294 293 294 292 293 293 293 294 294 294 294 292 290 289 289 288 288 289 289 288 288 288 288 289 289 289 289 289 288 289 289 289 288 288 289 288 288 288 288 288 287 287 287 286 286 286 285 285 285 285 285
298 298 298 297 297 298 298 297 296 296 296 295 296 294 294 295 296 296 296 297 296 295 295 294 294 295 295 294 293 295 295 294 294 294 294 292 292 291 292 293 293 294 294 292 292 292 290 288 288 287 288 289 290 292 289 289 288 289 289 289 289 289 289 289 288 288 288 288 289 288 288 288 288 288 287 286 286 286 286 286 285 284 284 283 284
301 299 299 298 299 298 297 298 297 298 293 294 297 297 295 296 295 296 297 296 293 294 294 293 293 294 292 293 295 294 294 294 291 291 292 293 292 292 292 292 292 292 291 290 291 291 289 288 288 286 286 287 286 288 289 289 289 288 288 288 288 289 289 288 288 289 289 289 289 289 289 288 288 288 288 287 287 286 285 284 284 285 283 283 284
299 298 297 298 298 297 297 299 295 297 298 295 297 299 298 296 296 298 296 296 293 294 293 294 294 293 293 294 294 292 292 293 294 294 291 292 292 291 291 290 291 292 290 290 290 289 288 288 287 286 285 285 287 287 287 288 288 288 289 289 289 289 288 288 288 288 289 289 288 288 288 288 288 287 287 287 287 286 285 285 284 284 284 284 284
301 298 296 295 295 295 296 301 299 298 299 297 296 296 294 296 297 293 292 298 293 294 295 296 295 295 295 294 293 296 293 293 294 291 293 294 293 292 290 291 290 290 290 290 288 288 288 287 286 286 285 285 285 286 287 288 289 289 288 289 289 287 286 286 286 286 287 287 288 288 288 288 287 288 288 287 286 285 284 285 284 284 283 284 284
303 300 299 298 297 296 297 298 296 293 295 294 298 297 295 294 298 296 297 294 294 295 296 296 296 297 294 296 294 294 293 294 294 293 294 293 292 292 291 291 290 290 290 289 289 288 289 287 286 286 286 286 286 286 286 287 288 288 288 286 284 284 284 284 285 285 285 285 287 288 289 288 287 287 287 286 285 285 284 284 284 284 283 284 285
300 302 300 297 297 298 298 297 298 297 299 299 296 298 295 295 297 297 297 295 299 297 298 296 296 296 296 296 294 297 295 293 295 294 293 293 293 293 292 291 290 290 290 290 289 288 287 287 287 286 285 285 285 284 284 285 285 286 284 284 282 282 282 283 284 283 284 286 286 287 287 288 287 286 286 286 286 285 285 284 285 285 285 286 284
299 299 299 300 301 297 297 300 298 301 296 297 296 298 298 297 295 297 298 298 298 297 298 297 297 297 297 297 295 296 296 295 293 295 294 293 293 293 291 291 291 289 290 290 289 289 288 287 286 286 285 285 284 284 285 284 284 285 284 282 280 281 281 282 284 282 283 283 284 285 287 287 287 286 285 285 286 284 283 284 284 285 285 285 285
299 298 298 298 299 298 298 298 300 299 296 297 298 298 295 297 296 296 294 295 297 296 295 297 297 297 296 297 294 295 295 295 296 295 296 295 294 293 292 291 291 291 291 291 291 290 290 290 289 288 286 286 285 284 284 285 285 283 281 278 279 280 280 280 282 281 280 281 283 285 285 285 285 285 285 284 285 284 284 284 284 283 284 284 284
Wind_Speed
6 6 7 6 6 7 7 7 8 7 8 8 7 6 6 5 5 5 6 6 7 5 5 5 7 4 4 6 10 10 7 5 4 3 6 7 7 6 5 7 6 6 6 6 5 6 6 6 6 6 5 5 4 3 4 3 3 5 6 7 6 5 8 7 6 4 1 1 3 6 9 8 7 7 9 6 7 6 3 10 11 7 7 5 5
7 6 6 7 8 8 8 7 7 7 8 7 7 7 7 6 5 5 5 6 4 7 5 3 3 6 6 7 5 6 9 6 9 8 7 7 6 7 9 7 5 6 7 7 6 6 5 6 6 6 6 6 5 5 4 4 5 5 4 6 5 5 6 7 5 6 5 2 1 0 9 10 7 11 9 8 6 6 9 7 8 8 7 7 6
8 7 6 7 8 7 8 8 9 9 9 7 8 7 7 7 6 6 6 6 4 3 6 1 3 4 2 3 5 7 5 6 7 5 6 5 5 4 5 6 8 8 7 7 8 6 5 5 6 5 4 4 5 5 5 4 4 5 4 4 6 3 2 3 6 6 7 5 5 6 6 7 4 11 10 8 6 7 9 8 7 8 8 8 7
7 7 7 8 8 8 8 8 9 9 8 7 9 7 7 6 5 6 6 5 5 2 3 2 2 2 2 3 3 5 6 6 6 1 4 3 1 4 5 7 6 6 7 7 8 7 6 6 6 6 6 4 2 3 3 4 1 3 1 3 3 5 1 2 6 6 7 7 5 5 4 5 3 10 8 7 7 6 6 7 7 7 8 9 9
7 7 7 7 7 7 8 7 8 8 8 7 8 8 7 5 4 6 7 7 5 3 5 2 0 1 2 1 2 5 7 7 4 3 5 4 5 5 5 4 3 5 5 6 6 7 6 5 4 4 2 0 1 2 1 4 1 3 3 2 2 2 2 0 3 6 6 6 6 5 7 4 5 10 10 9 7 6 5 8 7 8 8 10 8
6 6 7 7 8 9 8 8 9 8 8 7 7 7 6 5 6 5 4 5 6 4 5 4 2 2 1 4 5 3 0 3 3 4 5 5 3 2 1 2 2 2 3 3 3 3 5 3 3 5 4 4 4 4 2 5 7 7 5 5 5 5 2 4 2 4 6 8 4 5 5 6 4 8 10 9 8 7 5 7 6 6 6 5 6
7 7 8 7 7 8 8 8 8 7 8 8 7 7 7 5 4 5 6 4 4 5 5 4 1 1 1 1 3 3 3 2 1 3 5 7 6 4 3 2 1 3 3 4 3 3 5 8 8 5 6 6 7 2 5 4 8 7 6 8 8 5 3 5 5 5 4 4 5 6 5 4 3 7 10 9 8 7 6 7 6 4 5 9 6
8 9 8 8 8 8 8 7 8 9 7 8 8 8 8 8 7 5 5 6 6 5 4 3 1 3 1 1 1 1 2 2 2 3 2 4 4 4 4 5 4 3 4 3 3 4 5 6 7 7 6 6 6 9 7 4 5 5 4 4 6 9 8 6 5 8 6 5 5 6 4 3 2 0 6 8 7 5 6 6 7 5 7 7 7
9 9 8 8 8 8 8 7 7 9 9 10 10 10 10 9 10 10 7 6 6 6 6 4 3 2 0 1 1 1 1 3 3 1 1 4 6 3 1 3 3 1 2 4 4 6 4 4 5 4 6 8 10 8 6 6 6 6 3 4 6 5 3 2 2 5 5 5 7 5 5 4 3 2 3 5 6 7 4 6 4 6 7 7 8
7 7 8 8 7 9 9 8 9 9 10 11 11 11 11 11 11 11 10 9 8 7 7 6 5 6 4 2 0 1 3 1 2 5 2 4 3 3 2 1 2 2 2 4 7 5 3 3 2 4 6 7 11 11 9 4 7 6 6 5 5 5 3 2 2 2 6 5 6 6 6 5 5 4 3 2 2 3 6 6 7 6 7 6 5
7 7 9 9 8 9 9 10 9 10 10 9 10 11 12 11 11 12 11 11 11 11 9 5 5 6 7 6 7 7 8 8 15 10 9 6 4 3 2 1 1 0 3 4 6 5 4 7 7 7 6 6 7 11 10 11 13 13 11 9 6 3 4 4 1 1 3 2 1 5 6 6 5 4 5 6 2 2 4 4 4 4 5 6 5
8 10 11 10 10 10 9 10 10 9 9 10 10 11 11 12 12 12 12 12 10 10 11 10 9 7 9 11 10 7 7 12 13 14 12 11 7 3 1 2 1 0 2 5 6 6 6 6 5 6 6 4 7 8 10 13 15 15 15 15 16 15 9 4 2 3 4 1 6 5 3 4 3 5 2 2 2 3 4 3 1 1 2 3 2
10 11 11 10 10 10 10 9 9 9 9 10 10 11 11 12 12 13 13 11 10 10 11 11 10 9 9 7 8 7 8 12 11 11 11 11 10 4 1 5 4 3 5 6 4 4 4 6 6 5 7 6 5 8 8 10 13 16 16 16 16 14 12 11 5 6 3 5 5 1 3 2 3 3 1 1 2 3 2 5 6 7 6 6 2
11 11 11 11 11 10 10 10 9 9 9 10 11 11 11 11 10 9 10 11 11 11 10 12 10 9 9 8 7 8 10 12 11 12 11 10 9 5 2 2 5 7 5 6 2 2 3 2 4 5 7 8 6 11 11 12 9 8 9 9 9 11 13 12 10 7 10 7 4 2 2 4 5 4 5 2 2 2 1 5 5 5 6 5 3
11 11 10 11 11 11 11 10 10 10 10 10 10 11 10 9 10 10 10 10 11 11 12 11 10 10 10 9 10 10 10 15 13 13 13 11 11 4 4 7 6 7 6 6 5 5 5 6 6 3 2 2 6 10 11 9 9 10 11 10 10 10 9 9 7 6 7 8 8 7 7 9 8 6 6 6 4 2 1 3 6 6 6 3 4
12 11 11 11 11 11 11 10 10 11 11 10 11 11 11 10 10 9 9 9 9 10 12 11 12 12 10 10 10 10 9 18 15 14 14 11 11 8 9 9 8 8 11 13 14 12 9 7 5 6 3 5 6 7 6 11 11 12 11 10 10 10 10 6 10 13 11 10 9 8 8 9 10 9 8 6 4 3 2 7 8 7 6 5 4
12 11 11 11 11 11 11 11 11 11 11 11 11 11 10 10 10 8 9 9 9 10 10 11 11 10 10 11 11 10 12 16 17 17 15 12 11 9 11 11 10 13 13 13 13 13 12 11 7 6 5 6 7 12 16 15 10 11 11 10 9 10 8 7 11 15 17 17 16 15 14 16 16 16 16 16 11 6 3 6 3 4 6 5 3
12 11 11 11 11 11 11 11 10 10 10 11 11 10 9 8 9 8 8 8 9 9 9 9 10 11 12 11 10 8 9 14 21 20 17 17 11 10 8 11 12 12 12 12 12 13 16 24 17 9 9 7 11 16 11 11 11 10 10 10 9 9 7 6 6 7 10 13 13 14 14 14 16 16 17 17 17 12 7 6 4 1 7 6 5
12 12 12 11 11 11 11 11 11 10 11 10 9 10 10 9 7 7 7 7 7 8 8 9 11 12 13 10 17 15 12 16 20 21 21 19 13 10 10 11 11 10 11 12 13 12 12 14 20 16 12 12 21 20 19 10 8 8 8 9 9 8 4 4 6 7 6 6 6 7 9 10 9 9 11 16 15 12 8 5 4 6 4 5 9
12 12 12 12 12 12 11 12 11 11 10 10 9 9 8 8 9 8 8 7 7 7 8 10 11 12 12 14 12 12 11 11 20 24 22 20 17 13 11 12 13 12 12 11 12 11 11 12 15 20 22 23 23 24 22 18 12 10 7 8 9 7 3 3 3 3 4 6 7 8 7 7 7 7 6 7 8 8 8 7 6 5 5 5 5
12 12 13 12 13 13 12 12 12 12 10 9 9 9 9 9 9 9 9 9 9 8 10 9 10 12 13 14 13 13 12 13 16 25 24 22 20 16 11 10 11 12 12 12 11 10 10 11 11 18 24 24 23 21 19 20 18 13 11 9 5 6 8 6 9 8 6 6 6 6 5 5 6 6 6 6 6 5 6 6 6 6 6 7 8
12 13 14 14 13 14 14 13 11 10 10 10 10 10 9 10 9 10 9 9 11 11 10 10 10 11 12 14 16 16 19 23 13 22 24 23 23 20 13 10 8 14 14 11 10 10 10 10 11 16 22 23 22 22 20 17 19 13 12 15 17 17 10 8 7 7 6 6 5 5 5 5 6 6 6 6 5 5 5 6 7 7 7 6 6
12 12 12 13 13 13 14 15 12 10 10 11 11 10 8 10 11 10 10 10 11 11 11 10 11 11 11 11 11 14 15 17 23 19 23 24 24 22 19 14 16 15 14 12 9 8 8 10 12 18 20 21 20 21 19 21 17 14 19 18 16 15 11 7 6 6 6 5 5 4 5 6 5 5 5 5 4 4 6 6 6 7 8 8 7
11 11 10 12 12 11 12 14 13 13 13 11 11 11 11 9 9 10 10 10 9 11 11 10 10 10 10 11 11 11 11 12 16 20 20 23 21 21 20 20 17 14 14 12 9 9 10 11 12 19 19 19 19 19 20 19 16 20 19 19 17 13 8 7 5 5 5 6 7 7 6 6 6 5 4 4 6 5 5 4 4 5 6 6 7
11 12 12 12 11 12 11 11 12 12 11 11 11 10 12 10 9 8 10 10 10 10 9 11 10 9 9 9 9 9 8 9 10 14 18 18 19 19 18 18 18 17 15 10 9 10 12 16 18 19 19 19 18 17 16 18 21 20 20 18 15 10 10 9 9 8 7 6 5 5 6 6 5 3 3 3 3 5 4 4 4 4 4 5 6
11 12 13 12 13 13 12 12 12 11 11 11 10 9 10 11 11 10 9 9 9 9 9 9 10 10 10 10 10 9 8 8 10 10 10 12 13 16 16 16 16 16 15 12 14 15 15 15 18 18 17 15 12 11 10 11 16 17 17 15 10 10 9 9 9 8 7 6 6 6 5 3 2 1 1 2 2 1 3 4 3 4 4 5 6
9 10 11 12 11 11 12 10 10 10 9 8 9 9 8 8 9 10 9 8 9 8 8 8 9 9 10 9 8 9 9 9 8 8 8 9 9 9 10 10 12 12 10 9 9 9 11 11 11 13 12 15 15 13 12 11 10 9 8 8 7 6 6 5 6 6 7 7 6 6 5 3 2 3 2 2 2 1 3 5 5 5 4 3 7
6 8 10 8 8 10 9 10 11 9 9 8 7 7 9 8 8 8 8 8 7 8 8 8 8 8 7 7 7 9 9 9 10 9 9 8 8 8 8 9 9 8 8 8 8 8 9 10 12 10 11 11 10 9 8 8 8 7 7 7 7 7 7 9 8 6 6 3 3 2 1 1 1 3 1 3 3 4 6 3 2 1 2 5 6
6 7 6 6 8 8 8 8 9 9 9 10 9 7 6 6 8 8 8 6 5 5 6 7 6 6 6 7 6 7 7 8 8 5 8 10 9 8 8 8 7 8 8 9 9 9 9 10 9 10 10 9 8 9 8 8 7 7 9 7 6 7 6 6 6 5 5 5 2 3 4 3 1 2 4 5 5 4 5 5 4 2 2 5 6
8 7 5 5 4 7 8 8 9 9 9 9 9 10 14 15 9 7 5 9 14 13 9 6 5 5 7 6 6 6 6 3 4 10 12 11 11 11 9 10 9 8 10 13 8 8 8 8 8 8 8 8 7 6 6 5 6 7 7 7 7 7 6 5 5 5 6 6 7 6 6 5 6 5 4 4 4 4 4 5 3 4 3 4 5
6 6 7 7 8 5 4 7 8 8 9 8 8 9 7 9 12 11 12 12 13 14 14 14 14 11 7 6 5 7 5 5 9 9 10 10 11 12 12 12 12 12 11 8 8 7 7 7 7 6 6 6 5 5 5 5 4 4 5 6 6 6 5 6 6 5 5 5 5 4 5 6 5 6 5 3 2 4 4 4 5 7 4 2 6
6 5 6 7 8 8 8 9 6 6 7 7 7 7 8 7 6 8 8 12 13 14 15 14 14 14 13 9 6 5 8 10 10 10 10 11 12 12 13 12 11 10 10 9 7 6 5 5 5 5 6 5 4 4 4 4 3 3 3 4 3 3 5 4 4 5 4 4 4 4 4 4 4 5 4 4 5 2 2 4 3 4 5 6 1
7 5 6 5 5 6 6 7 6 6 5 5 6 7 8 7 7 6 6 8 13 11 11 12 12 12 12 12 11 8 5 6 9 10 10 10 11 12 13 13 12 10 9 8 5 5 5 6 5 5 5 4 5 4 4 4 3 3 2 2 1 1 1 2 3 2 1 1 2 3 3 3 3 3 3 3 3 2 1 2 2 1 1 2 4
9 9 4 5 6 6 6 5 5 5 5 6 5 4 6 6 7 7 6 6 8 7 7 7 8 11 10 9 9 8 8 7 7 8 8 8 8 7 6 6 9 11 8 5 4 4 5 5 5 5 4 5 5 6 5 5 6 5 5 5 4 4 4 2 3 3 1 2 2 1 1 1 1 1 2 2 3 2 2 1 1 3 4 4 6
7 11 16 10 7 7 5 6 6 6 5 5 4 5 5 3 4 2 4 6 7 6 4 4 7 10 6 6 6 8 8 7 5 4 3 3 5 4 7 1 3 4 4 5 5 5 5 5 4 4 3 5 5 4 5 5 5 5 5 4 6 6 5 5 4 5 4 4 2 3 3 3 2 4 3 2 3 3 1 6 5 4 4 6 5
7 6 6 8 7 6 6 7 5 5 5 5 5 6 6 6 6 5 5 6 6 7 6 4 3 5 7 7 5 6 9 7 5 4 5 7 9 2 2 4 4 5 6 6 4 5 5 4 4 4 4 3 3 3 2 2 3 4 5 4 4 4 4 4 4 4 5 5 1 3 4 5 3 1 2 1 6 6 5 5 6 6 5 4 4
7 4 5 6 6 6 6 6 6 6 6 5 5 5 5 5 6 6 7 7 8 7 5 4 2 2 1 1 3 5 6 5 5 4 7 9 12 8 7 7 5 5 6 5 4 4 4 4 5 5 4 4 5 3 3 4 5 4 5 5 4 4 3 4 4 4 5 6 4 3 4 4 3 4 2 2 6 6 6 5 4 4 3 4 5
7 7 7 5 5 5 4 5 5 6 6 6 6 6 6 5 5 5 6 8 9 8 7 7 6 6 4 1 4 2 1 2 3 5 5 5 4 4 5 6 7 7 5 6 5 5 4 4 4 5 5 6 6 6 6 7 6 6 4 4 3 2 4 5 3 4 5 5 5 5 5 3 4 4 1 4 5 4 4 3 2 1 0 4 7
6 10 11 11 7 5 6 6 6 5 5 5 5 5 4 4 5 5 5 5 6 5 6 6 6 5 4 4 3 1 3 2 4 4 4 5 5 5 5 5 4 4 4 4 5 4 4 4 4 4 4 5 5 4 5 4 6 5 4 5 6 5 6 5 4 5 6 5 6 6 5 5 3 4 4 5 5 5 5 5 5 4 3 5 4
5 5 2 1 5 6 4 3 4 4 4 5 5 5 5 5 4 4 3 3 6 5 5 6 5 4 4 5 5 6 5 3 4 4 4 4 4 5 5 5 6 5 6 6 6 6 4 4 4 4 4 3 5 5 4 5 4 4 4 5 4 4 5 4 5 5 6 5 6 5 5 6 7 6 6 5 5 5 4 3 3 4 4 3 1
6 4 4 3 4 5 5 6 5 5 3 3 4 5 4 5 5 4 5 5 4 4 6 5 4 3 3 6 9 9 5 5 4 5 5 4 3 4 4 4 4 5 5 4 4 4 4 3 3 4 4 4 3 3 2 1 2 3 3 4 4 4 4 4 5 5 5 5 4 5 5 5 4 5 5 5 5 3 1 2 2 1 2 1 3
4 4 5 5 6 5 4 4 3 3 3 4 6 4 3 4 4 3 3 2 3 4 3 5 3 2 2 4 5 8 3 5 4 5 4 4 4 3 4 5 4 4 3 4 5 4 4 4 3 4 4 4 4 4 4 3 4 5 4 4 4 4 4 4 5 5 5 5 5 5 5 5 5 5 4 6 6 5 3 4 5 6 3 3 2
5 5 5 4 4 4 4 5 5 4 5 5 3 3 4 6 4 3 3 4 3 4 4 2 2 4 2 4 2 3 2 4 4 3 3 3 3 3 4 4 4 3 4 5 5 4 3 4 4 3 3 2 2 4 3 4 4 4 4 3 3 3 3 3 3 4 4 4 5 5 5 5 5 5 3 4 3 4 3 3 2 3 4 5 2
4 4 4 3 4 2 3 4 4 2 3 1 2 3 4 5 3 3 2 2 3 2 1 3 2 1 3 1 2 1 3 4 3 3 3 2 3 2 4 5 4 3 3 5 4 4 4 3 2 3 3 2 3 2 2 2 4 4 4 5 5 4 4 4 4 4 4 4 5 5 5 5 6 5 3 2 3 1 2 2 3 3 3 4 3
2 3 3 4 3 2 3 3 3 2 3 4 0 3 3 4 3 2 2 1 2 3 2 4 3 3 4 4 2 3 4 4 2 3 2 3 0 3 4 3 4 4 3 4 4 3 2 4 4 4 4 3 4 4 1 4 1 2 3 3 3 4 4 4 4 4 4 5 5 5 6 6 6 4 1 0 0 0 4 4 4 3 2 2 3
3 3 4 4 2 4 3 2 4 3 2 2 2 0 2 4 3 1 2 2 2 2 3 4 3 3 1 3 3 4 4 4 4 3 2 1 2 4 4 4 3 2 2 3 2 4 1 2 3 3 3 4 3 3 4 2 3 3 1 1 3 3 4 4 5 6 7 6 4 3 4 5 6 5 4 3 2 2 1 0 2 2 3 1 3
3 2 4 4 2 2 2 0 1 2 2 1 3 1 2 3 2 5 4 0 5 2 4 1 3 2 3 3 2 1 4 1 1 2 2 2 4 5 4 3 3 4 3 3 4 3 1 3 3 2 1 2 2 3 3 4 2 3 3 1 2 3 3 4 4 4 4 6 7 5 4 3 4 5 5 6 6 4 2 0 0 1 3 2 4
2 3 2 5 7 5 4 3 3 2 5 4 1 1 1 3 0 2 1 5 5 3 3 2 3 0 3 3 2 2 4 2 1 1 0 2 4 5 4 4 2 3 3 2 4 2 0 3 0 0 1 0 1 1 3 3 4 2 2 4 3 2 3 4 4 4 4 5 5 6 6 5 4 4 3 4 4 5 4 6 3 3 3 3 3
1 1 1 5 4 2 1 3 1 2 1 1 3 2 2 4 1 1 2 5 2 1 2 3 1 2 2 1 3 0 1 2 2 2 1 1 3 5 4 4 3 2 1 1 2 3 3 3 1 1 1 0 2 3 3 2 2 4 3 3 2 4 5 5 3 3 5 5 5 5 5 6 5 4 4 4 3 3 4 5 5 3 3 1 3
2 1 1 1 1 1 2 2 1 1 3 2 3 2 2 1 3 2 2 1 2 2 1 0 2 1 0 1 2 0 1 1 3 2 2 1 1 3 5 5 4 3 1 1 1 2 2 4 4 3 3 2 1 0 1 2 1 3 2 2 3 2 1 2 2 4 4 3 3 3 4 5 6 6 6 4 5 2 2 4 5 6 4 1 1
1 0 1 1 1 1 2 2 1 2 5 3 1 1 0 1 3 2 6 5 3 3 3 2 1 2 3 1 2 2 3 4 1 2 1 1 1 2 3 2 2 4 2 0 2 3 0 0 2 5 3 4 3 3 2 0 3 2 3 4 3 1 1 2 1 3 2 2 2 3 3 4 5 6 6 5 6 4 4 3 4 3 4 1 1
Wind_Direction
344 349 337 340 339 337 336 337 331 331 337 335 330 325 325 327 324 311 308 297 294 286 275 298 319 302 257 258 273 269 253 235 248 231 200 195 181 192 164 219 188 177 166 169 173 176 183 184 184 187 186 206 199 174 157 171 160 141 158 167 174 168 149 158 212 139 334 115 150 151 144 140 166 147 140 145 162 185 133 136 143 149 147 151 160
354 357 348 347 352 339 336 336 337 337 335 327 324 331 327 330 330 322 309 300 299 314 304 302 291 321 292 275 282 296 279 242 225 233 210 198 184 184 196 185 205 184 178 173 177 183 180 184 185 183 203 205 188 187 172 174 149 163 172 165 171 174 174 159 161 144 141 186 73 181 145 169 166 139 143 143 160 150 135 147 156 162 162 155 158
351 347 355 352 343 336 340 342 345 340 336 331 328 334 330 329 333 322 312 310 310 274 291 259 283 270 266 240 240 249 253 306 284 209 215 189 181 190 207 201 201 185 172 180 179 179 176 182 178 186 195 217 186 189 170 166 158 183 172 186 161 164 177 153 139 142 151 169 170 195 150 184 150 134 142 150 164 155 151 158 173 179 164 160 166
349 358 2 351 347 350 351 349 345 339 336 337 330 335 330 332 316 316 302 291 303 285 249 222 270 305 128 150 224 227 233 213 250 29 356 9 45 213 217 206 189 160 174 186 181 176 184 184 182 183 179 206 214 163 120 93 93 183 201 57 46 144 260 138 153 141 157 161 178 153 156 180 126 129 136 154 166 191 164 164 178 191 160 165 164
351 355 7 355 354 354 351 346 334 333 331 329 324 331 333 324 341 320 311 309 299 302 287 221 252 126 122 185 201 236 221 196 195 218 160 227 236 223 191 167 157 164 176 187 179 169 175 185 181 175 125 106 21 340 107 129 47 32 50 64 257 8 357 220 171 151 146 153 180 156 161 180 169 144 151 154 172 197 177 160 181 203 164 169 160
348 359 6 5 2 359 348 343 337 336 332 329 328 327 336 344 328 311 305 305 305 313 317 331 348 44 84 207 207 204 199 91 127 148 131 136 217 194 164 105 156 190 181 183 180 152 154 163 68 70 118 158 100 240 310 148 160 192 169 165 174 181 194 264 151 162 149 178 154 129 159 183 192 148 159 155 163 185 172 167 189 197 155 115 117
9 15 9 12 357 3 345 337 340 342 343 337 337 344 347 345 321 322 315 301 326 347 354 347 32 93 327 208 168 123 141 198 168 183 153 165 202 180 173 169 198 192 217 188 168 153 111 110 121 158 177 166 139 146 229 212 129 178 159 141 138 106 290 213 195 163 173 172 137 148 168 185 181 153 161 156 162 179 162 164 198 173 129 125 128
17 12 9 3 5 353 345 345 345 351 341 354 358 357 2 1 350 344 324 343 354 356 330 297 255 222 171 249 138 178 189 169 216 235 191 154 202 188 176 179 188 218 216 152 181 126 118 130 150 182 179 175 149 175 211 131 159 130 119 116 133 154 190 210 187 166 179 168 142 163 166 152 150 354 132 145 151 196 163 154 180 162 146 140 152
15 10 11 11 5 349 350 350 353 1 1 360 6 7 8 5 1 2 357 351 350 347 333 323 335 346 170 180 140 169 254 197 153 180 174 187 174 190 190 166 154 227 222 159 119 90 95 122 139 185 188 176 164 191 183 171 146 130 138 140 155 162 194 224 151 144 177 155 148 151 137 129 152 200 115 143 158 195 169 146 172 157 158 147 162
19 7 15 14 8 357 353 360 9 10 7 8 12 13 9 6 4 3 3 0 359 359 332 354 5 4 0 6 354 174 258 24 108 130 38 344 192 134 176 215 165 224 177 119 96 111 153 84 66 124 148 133 151 139 126 149 133 132 153 143 150 125 92 45 360 178 161 156 147 137 136 160 175 178 137 144 185 159 142 153 165 176 150 168 172
13 20 21 18 10 7 2 6 14 16 11 13 18 19 19 12 11 8 5 356 8 5 355 8 15 20 16 8 10 33 33 23 12 53 98 80 59 68 122 164 253 171 101 105 108 124 114 92 91 95 91 109 117 117 113 108 96 86 77 82 73 100 125 99 310 48 58 77 80 140 151 166 172 155 148 169 203 127 138 140 137 135 158 153 186
21 27 23 15 13 12 6 6 14 16 16 20 24 25 22 20 18 14 10 6 7 10 22 22 30 32 34 42 40 22 33 16 28 26 28 41 43 70 126 85 112 245 133 111 117 128 120 111 130 129 119 117 140 111 103 100 99 94 86 79 73 60 72 149 173 91 54 28 46 349 114 104 92 71 51 46 17 35 107 100 115 98 95 107 97
33 27 21 18 20 14 9 10 15 18 22 21 26 25 24 25 24 21 16 8 9 17 25 27 24 25 33 46 44 26 23 9 30 37 34 31 32 18 167 150 147 127 52 33 55 108 123 132 158 132 118 186 155 117 111 103 100 100 93 82 66 61 52 44 58 135 116 112 121 59 45 104 85 55 84 84 59 18 23 61 43 40 63 76 75
38 26 17 16 20 17 16 11 16 23 24 27 26 26 25 27 29 26 19 13 20 22 30 35 26 22 22 31 40 38 32 359 20 36 35 33 25 28 307 95 69 50 84 121 142 82 98 68 70 90 148 206 157 127 121 121 122 94 74 60 57 43 35 26 39 94 110 96 65 104 17 49 72 51 32 70 89 36 47 89 100 92 83 94 62
40 25 18 16 19 19 17 16 17 22 27 31 30 29 30 30 33 34 26 21 21 24 19 26 27 25 23 18 31 37 29 11 22 28 29 27 19 358 42 72 66 73 35 38 47 47 71 46 58 67 311 254 146 140 137 134 100 93 82 67 60 55 40 20 21 48 67 79 83 67 58 59 63 52 34 23 84 185 139 125 129 120 110 94 61
37 28 20 19 19 21 18 22 22 21 24 30 32 31 30 32 36 38 35 28 29 34 35 29 23 14 8 14 26 24 12 12 16 26 33 20 37 60 74 72 72 63 56 39 34 19 20 54 66 82 73 325 355 125 148 104 100 98 92 87 78 69 58 23 59 72 78 85 88 85 78 81 80 74 58 50 34 8 116 114 105 113 113 105 121
34 27 23 18 20 20 22 24 28 26 25 29 34 31 24 27 36 36 41 35 32 37 39 39 32 22 14 11 21 24 20 5 19 30 30 32 61 62 70 67 57 56 53 49 44 42 27 22 30 38 49 12 336 118 109 103 105 100 96 92 89 85 80 61 51 76 90 91 92 93 87 73 64 56 48 44 37 14 51 88 78 141 138 143 152
34 28 25 24 22 24 24 26 28 33 32 32 32 30 24 29 38 34 43 40 39 36 39 36 37 35 31 22 9 26 16 10 25 35 33 44 69 76 71 81 76 61 60 50 50 48 38 37 37 26 23 26 38 50 67 104 104 104 106 102 96 96 102 102 93 73 84 98 101 97 89 82 72 61 54 47 39 36 63 64 334 254 166 160 136
36 31 30 28 26 27 29 28 29 33 38 35 31 33 28 23 30 39 46 49 47 44 39 41 40 38 32 24 22 28 30 21 23 35 36 33 44 53 56 68 67 67 64 57 53 45 42 34 35 36 37 31 46 41 40 55 91 105 111 103 96 99 112 123 106 108 109 98 87 77 65 63 64 62 57 53 47 48 49 47 26 43 50 101 123
44 41 37 34 31 31 31 33 32 32 36 38 32 35 34 33 27 26 40 49 54 51 47 47 48 44 38 34 32 20 24 24 29 34 38 39 49 70 65 75 80 69 62 58 56 50 44 42 36 35 42 33 41 51 43 41 63 49 64 91 101 96 103 93 99 109 90 82 79 73 71 70 74 63 56 54 51 47 48 48 46 50 66 68 93
55 49 45 41 38 37 34 35 36 35 37 37 36 37 39 39 35 37 40 41 45 48 48 49 53 49 44 42 42 33 26 31 33 37 41 42 42 58 66 67 80 77 70 62 52 50 42 44 42 41 49 44 39 34 41 50 58 59 51 59 48 72 73 78 77 84 86 88 92 95 97 86 77 72 66 61 56 51 51 48 47 46 58 86 96
59 57 52 47 44 40 37 33 35 36 36 40 40 40 42 47 46 45 44 48 50 48 46 46 48 48 46 45 44 42 39 38 38 38 41 48 49 54 67 56 67 88 74 65 61 60 58 45 50 43 50 50 45 41 26 36 51 54 45 48 50 55 55 52 49 47 51 55 62 69 78 79 73 67 67 68 57 53 63 63 55 50 50 60 92
62 60 58 54 50 49 46 41 38 33 30 33 36 31 27 44 51 48 49 50 48 47 44 43 46 46 45 43 45 46 46 45 43 47 43 48 51 53 58 64 66 73 81 71 58 60 60 59 51 51 53 52 48 43 36 30 38 39 38 38 40 50 55 53 51 54 57 65 70 79 74 79 77 68 66 66 58 55 57 56 60 63 61 56 56
62 65 64 60 51 51 50 49 47 43 35 31 33 32 23 24 49 51 50 51 46 49 46 45 46 45 43 44 41 42 45 53 51 52 52 52 51 54 56 59 63 74 75 75 68 57 53 54 55 58 54 50 44 45 42 40 38 34 35 35 35 35 40 42 44 43 43 42 40 38 47 62 73 70 70 70 64 61 66 70 68 76 86 79 66
61 59 60 60 58 53 48 48 50 48 45 41 38 27 29 22 26 24 50 49 48 46 44 48 48 43 44 44 40 34 32 45 56 58 62 62 60 60 60 59 58 63 71 70 70 66 67 63 58 56 55 51 46 43 42 39 36 33 33 34 37 38 33 31 29 32 41 53 61 58 56 50 58 67 63 71 73 71 68 71 88 85 88 92 85
78 75 69 65 62 60 54 50 46 48 50 51 53 47 48 41 45 32 31 41 42 46 45 45 48 48 52 47 46 39 24 27 40 43 47 54 57 57 59 58 61 65 71 72 69 67 64 63 62 59 55 52 48 45 43 38 36 34 31 30 35 35 37 41 32 32 33 33 40 48 50 54 38 25 101 91 71 125 142 139 124 126 126 107 86
99 99 93 85 76 69 66 57 52 42 36 46 53 52 40 34 38 38 34 38 44 43 43 38 43 49 51 46 44 42 40 30 21 19 23 41 43 40 42 44 46 53 56 49 48 51 52 55 64 64 65 59 58 55 51 39 37 35 30 25 26 31 35 49 44 33 29 24 26 32 26 21 350 353 354 94 138 159 153 159 169 168 180 120 106
70 92 102 110 105 94 85 77 74 65 53 39 31 38 48 44 40 34 26 20 37 47 45 43 40 36 38 37 42 44 41 32 22 16 13 30 43 45 42 44 43 41 45 46 48 42 46 44 44 41 44 44 43 43 41 40 40 36 31 25 22 22 25 32 40 31 19 6 6 345 325 314 289 278 294 57 35 16 357 359 88 138 135 133 99
83 77 75 101 114 111 106 100 85 85 76 66 58 36 19 44 60 53 30 13 17 44 64 65 56 44 42 29 34 45 32 33 11 356 51 53 54 48 40 38 41 48 46 49 54 45 44 44 40 41 44 43 38 37 31 33 28 30 33 28 25 23 27 33 33 20 13 350 315 312 305 268 262 38 56 45 17 9 7 360 9 53 1 53 104
31 39 44 48 86 123 130 118 115 98 90 91 84 63 44 39 37 80 66 45 55 49 54 61 58 72 66 41 26 49 52 3 338 46 53 54 52 54 57 60 60 59 56 55 57 61 49 48 43 43 41 41 39 35 30 31 32 33 28 25 26 25 26 24 25 12 4 12 14 16 2 0 23 42 55 35 359 358 9 23 359 25 47 110 118
62 50 33 29 20 26 70 121 123 112 110 105 92 98 96 55 42 55 91 87 74 69 66 62 53 43 60 88 66 58 59 50 55 56 56 54 52 51 51 53 54 54 53 59 48 53 50 51 47 47 47 48 43 36 30 35 34 39 33 30 31 27 23 19 359 7 16 11 10 14 14 17 25 22 29 19 10 27 15 337 11 12 356 53 98
87 66 53 46 23 23 38 36 65 110 116 107 108 109 100 97 81 43 42 85 86 84 80 71 64 60 49 47 68 73 49 46 51 55 55 56 56 56 52 46 43 49 46 59 64 54 53 59 51 48 50 46 31 39 46 55 40 60 63 47 30 28 33 14 348 37 21 18 21 20 20 17 24 17 14 12 354 1 37 11 41 56 21 5 77
37 69 94 83 76 61 59 49 44 46 66 106 123 113 104 109 99 90 48 57 77 72 77 95 97 86 81 71 66 78 72 50 51 51 50 54 65 67 61 54 49 38 46 48 50 43 41 48 52 46 42 37 26 21 14 27 37 27 81 112 81 2 334 345 331 22 37 338 58 35 360 347 11 32 359 344 347 4 38 357 3 16 356 17 34
50 31 25 82 71 62 56 61 54 47 63 55 48 83 123 114 119 128 126 111 83 76 64 53 75 92 85 93 100 86 65 50 41 33 25 19 11 17 51 79 68 58 57 49 48 60 60 59 51 40 26 21 19 24 23 22 16 24 26 27 7 353 347 329 330 317 331 317 309 249 276 285 254 271 264 274 285 328 345 281 310 53 359 15 40
69 50 38 34 52 48 55 65 63 63 40 36 46 45 51 106 141 120 81 90 101 96 81 58 22 15 67 79 86 93 92 82 63 45 24 351 313 327 315 59 57 70 69 71 55 43 32 40 52 44 37 35 36 33 25 18 23 20 9 18 35 22 14 16 13 360 356 340 356 343 292 270 263 254 237 247 290 311 94 62 33 42 35 25 22
87 81 84 64 54 53 51 40 49 60 67 73 53 34 25 24 39 58 64 59 88 105 95 73 71 27 39 57 49 88 105 91 66 35 344 346 353 30 11 48 47 45 36 34 47 56 52 34 32 30 24 21 38 47 25 15 32 45 360 29 40 18 4 359 359 2 355 330 316 345 343 346 324 52 109 74 72 58 51 45 40 36 34 26 12
42 69 98 90 92 93 68 68 55 42 39 51 61 74 68 52 45 45 43 46 43 65 92 121 151 134 98 69 76 24 354 69 75 29 3 344 10 28 27 15 28 49 56 41 38 52 46 28 15 16 18 21 11 27 24 8 21 37 30 25 24 6 348 335 344 359 349 334 312 358 333 285 310 337 320 67 67 69 61 59 51 32 22 354 358
53 34 31 60 94 70 99 100 95 74 58 54 53 52 47 47 43 56 68 69 58 46 39 36 31 29 43 97 224 210 65 295 357 2 13 21 47 51 46 45 30 22 36 43 30 40 50 44 32 20 8 9 3 8 27 22 18 14 13 16 11 347 329 312 323 348 324 321 338 343 317 327 310 297 35 75 84 104 110 123 152 167 128 45 39
65 40 39 27 30 76 75 58 56 66 72 76 72 62 64 67 55 57 60 68 82 81 64 47 43 46 27 9 15 57 207 93 68 54 29 20 20 39 41 41 50 47 38 37 44 39 45 36 36 35 28 12 5 15 25 21 13 359 357 353 345 351 0 352 354 336 326 325 331 321 320 307 325 42 54 73 71 58 45 48 48 39 57 68 39
83 93 56 47 59 39 57 69 101 99 91 81 67 57 43 41 54 49 48 85 98 89 69 59 48 45 20 7 3 357 354 64 64 67 54 45 32 38 45 33 28 30 37 38 27 18 31 46 38 36 38 10 8 20 19 29 9 347 339 344 356 358 8 7 351 348 350 353 8 11 18 20 7 34 59 65 61 58 45 47 55 66 59 75 96
107 105 99 82 105 92 72 65 44 37 43 81 109 105 85 65 41 34 44 28 36 106 107 88 81 65 33 8 346 7 8 48 39 50 47 44 49 49 42 48 47 34 31 35 47 34 25 25 39 38 26 19 11 17 47 52 337 331 346 347 359 351 353 1 348 346 354 358 12 5 3 1 14 27 31 38 27 11 354 23 10 84 127 91 56
123 106 89 77 56 59 75 78 85 80 67 48 40 36 80 102 85 68 22 42 53 43 84 119 113 105 144 53 321 325 355 56 42 44 35 26 21 48 58 52 42 40 51 38 40 30 33 23 25 57 41 18 358 357 360 18 28 360 5 10 359 346 358 10 348 340 351 360 349 353 348 348 357 359 20 54 37 26 26 32 39 12 24 86 98
74 76 79 82 82 88 78 70 56 51 40 44 49 84 61 34 47 74 58 4 27 82 83 56 103 144 152 225 256 305 74 66 65 54 56 36 17 9 57 70 55 21 27 53 47 31 27 34 38 34 24 349 15 39 28 11 9 356 346 5 352 330 341 4 344 341 359 359 340 336 338 334 347 355 8 66 66 25 36 56 16 22 359 346 240
102 97 100 102 114 117 105 99 89 82 83 41 100 65 64 78 54 44 53 32 11 42 96 109 71 65 131 216 240 265 96 101 88 70 57 47 40 33 50 46 33 6 47 68 51 23 11 18 53 48 341 13 43 38 40 28 31 352 357 3 349 351 344 341 350 360 1 347 337 330 325 324 322 338 328 65 65 20 337 68 54 18 344 317 319
130 118 106 97 89 109 104 100 99 120 165 228 133 88 100 111 113 91 68 28 258 250 131 96 81 48 64 63 2 20 37 69 92 115 149 97 299 62 65 54 23 358 63 79 80 59 24 351 21 37 9 17 24 351 52 82 48 39 6 350 342 339 336 354 357 356 349 334 328 339 341 322 313 308 354 92 153 16 48 44 12 342 295 294 28
130 133 141 121 74 36 49 101 141 113 101 66 13 359 149 139 134 99 109 201 253 236 102 90 101 115 111 89 27 60 57 20 15 29 56 123 96 90 85 67 43 358 75 83 74 101 59 357 40 35 17 9 27 354 325 244 174 141 113 319 302 339 16 8 4 360 346 319 318 349 345 347 348 337 345 349 68 69 100 324 263 266 291 183 116
68 88 73 66 98 126 129 120 65 103 64 123 163 158 342 329 119 162 160 216 295 299 81 165 111 93 109 119 93 71 91 100 3 338 2 59 98 105 81 68 40 18 356 100 68 68 57 73 57 15 41 43 349 308 299 310 316 123 158 185 28 42 24 4 5 360 352 343 335 343 342 351 6 357 354 7 4 354 20 266 236 263 284 268 149
46 16 76 163 165 174 193 228 154 146 161 220 70 47 49 298 241 100 151 177 211 320 59 33 72 153 93 114 148 135 121 140 158 225 55 73 78 109 110 101 77 65 336 64 113 104 97 97 50 36 4 4 247 321 316 333 340 1 72 69 50 52 50 30 9 3 353 338 336 346 346 340 320 312 335 355 353 346 344 320 277 225 250 255 149
67 137 77 15 30 12 84 295 48 134 114 202 125 88 70 315 37 334 329 30 27 344 56 69 327 45 27 66 82 79 145 174 144 113 99 84 90 117 127 127 126 103 88 69 100 174 173 145 164 134 124 335 15 13 335 326 335 62 72 73 55 35 41 48 32 17 347 347 350 353 349 341 342 352 356 338 317 294 327 320 313 292 222 240 105
127 127 57 147 175 125 283 223 316 316 134 346 49 59 85 322 323 335 23 321 320 18 58 87 24 53 241 60 77 163 204 79 77 95 90 109 147 128 148 156 158 164 138 137 187 226 188 159 177 176 170 181 152 197 312 299 44 100 121 123 160 119 66 12 87 41 12 353 342 329 327 334 337 329 323 315 303 283 256 278 288 300 310 97 85
32 188 147 287 339 175 227 99 127 47 46 42 313 295 94 31 313 24 21 358 5 313 322 20 67 32 26 323 305 319 70 80 51 45 50 63 105 122 127 142 129 109 127 45 320 278 205 238 185 170 187 160 172 162 201 158 101 110 113 142 165 170 75 342 5 20 12 344 311 319 328 333 325 325 323 316 305 280 250 276 294 298 319 301 210